Weather in Novokievskiy Uval

Russia / Amur Oblast     51°39′31″N   128°55′03″E
temp.,
°C
wind,
m/s
gust,
m/s
humid.,
%
clouds,
%
prec.,
mm/h
press.,
hPa
HPBL,
m
15 april, thu
thu1500:00−6wsw11570 0.0 100910
03:00−7wsw115778 0.0 100913
06:00−6wsw11575 0.0 100915
09:00+1wsw243299 0.0 1009829
12:00+5w352878 0.0 10092239
15:00+6nw3425100 0.0 10092249
18:00+5sw1134100 0.0 101018
21:00+1ene1147100 0.0 101221
16 april, fri
fri1600:00−1e2555100 0.0 101394
03:00−2ene2558100 0.0 1013101
06:00−1ne3857100 0.0 1013200
09:00+3ne5937100 0.0 1012659
12:00+6ene5730100 0.1 10121648
15:00+6ene5734100 0.1 10111714
18:00+5ene4742100 0.0 10121367
21:00+3ne395876 0.0 1012404
17 april, sat
sat1700:00+1nne396074 0.0 1012381
03:000nne3106499 0.0 1011312
06:00−1n38676 0.0 1012266
09:00+4n46385 0.0 1012645
12:00+9n34225 0.0 10111362
15:00+11nnw23140 0.0 10091701
18:00+10nw23160 0.0 1009350
21:00+4w11250 0.0 101110
18 april, sun
sun1800:00+3s11270 0.0 101110
03:00+1s22350 0.0 101111
06:00+1s22500 0.0 101235
09:00+8s35310 0.0 1011459
12:00+13s44221 0.0 10091227
15:00+15ssw342235 0.0 10071581
18:00+14ssw24285 0.0 1007742
21:00+8sse22475 0.0 100832
19 april, mon
mon1900:00+6sse225744 0.0 100823
03:00+5se22666 0.0 100920
06:00+4ese116612 0.0 101011
09:00+12se123910 0.0 1010476
12:00+17sw12325 0.0 10101285
15:00+18nw23325 0.0 10092014
18:00+16nnw44335 0.0 10101360
21:00+10nne38500 0.0 1013226